Location: Thunder Bay
(48.4000°N, 89.2330°W)
Time: 22:18:26
(UTC-04:00)

ISS - Pass Details

Date: 02 July 2021
Orbit: 419 x 421 km, 51.6° (Epoch: 02 August)

Event Time Altitude Azimuth Distance (km) Brightness Sun altitude
Exits shadow 05:18:26 - 250° (WSW) 1,825 -1.1 -6.1°
Reaches altitude 10° 05:19:14 10° 251° (WSW) 1,499 -1.5 -6.0°
Maximum altitude 05:22:36 82° 339° (NNW) 428 -3.7 -5.6°
Drops below altitude 10° 05:25:59 10° 68° (ENE) 1,504 0.4 -5.2°
Sets 05:28:05 0° 69° (ENE) 2,369 1.5 -4.9°
